Year,Month,Day,Hour,Minute,Value (Times are PST for temperature in C)
2010,07,09,00,00,19.80
2010,07,09,00,01,19.80
2010,07,09,00,02,19.80
2010,07,09,00,03,19.80
2010,07,09,00,04,19.70
2010,07,09,00,05,19.70
2010,07,09,00,06,19.70
2010,07,09,00,07,19.70
2010,07,09,00,08,19.70
2010,07,09,00,09,19.70
2010,07,09,00,10,19.70
2010,07,09,00,11,19.70
2010,07,09,00,12,19.60
2010,07,09,00,13,19.60
2010,07,09,00,14,19.60
2010,07,09,00,15,19.60
2010,07,09,00,16,19.60
2010,07,09,00,17,19.60
2010,07,09,00,18,19.60
2010,07,09,00,19,19.60
2010,07,09,00,20,19.60
2010,07,09,00,21,19.60
2010,07,09,00,22,19.50
2010,07,09,00,23,19.50
2010,07,09,00,24,19.50
2010,07,09,00,25,19.50
2010,07,09,00,26,19.40
2010,07,09,00,27,19.40
2010,07,09,00,28,19.40
2010,07,09,00,29,19.40
2010,07,09,00,30,19.40
2010,07,09,00,31,19.40
2010,07,09,00,32,19.30
2010,07,09,00,33,19.30
2010,07,09,00,34,19.30
2010,07,09,00,35,19.30
2010,07,09,00,36,19.30
2010,07,09,00,37,19.30
2010,07,09,00,38,19.30
2010,07,09,00,39,19.20
2010,07,09,00,40,19.20
2010,07,09,00,41,19.20
2010,07,09,00,42,19.20
2010,07,09,00,43,19.20
2010,07,09,00,44,19.20
2010,07,09,00,45,19.10
2010,07,09,00,46,19.10
2010,07,09,00,47,19.10
2010,07,09,00,48,19.10
2010,07,09,00,49,19.10
2010,07,09,00,50,19.10
2010,07,09,00,51,19.10
2010,07,09,00,52,19.10
2010,07,09,00,53,19.00
2010,07,09,00,54,19.00
2010,07,09,00,55,19.00
2010,07,09,00,56,19.00
2010,07,09,00,57,19.00
2010,07,09,00,58,18.90
2010,07,09,00,59,18.90
2010,07,09,01,00,18.90
2010,07,09,01,01,18.90
2010,07,09,01,02,18.90
2010,07,09,01,03,18.80
2010,07,09,01,04,18.80
2010,07,09,01,05,18.80
2010,07,09,01,06,18.80
2010,07,09,01,07,18.80
2010,07,09,01,08,18.80
2010,07,09,01,09,18.70
2010,07,09,01,10,18.70
2010,07,09,01,11,18.70
2010,07,09,01,12,18.70
2010,07,09,01,13,18.70
2010,07,09,01,14,18.60
2010,07,09,01,15,18.60
2010,07,09,01,16,18.60
2010,07,09,01,17,18.60
2010,07,09,01,18,18.60
2010,07,09,01,19,18.60
2010,07,09,01,20,18.50
2010,07,09,01,21,18.50
2010,07,09,01,22,18.50
2010,07,09,01,23,18.50
2010,07,09,01,24,18.40
2010,07,09,01,25,18.40
2010,07,09,01,26,18.40
2010,07,09,01,27,18.40
2010,07,09,01,28,18.40
2010,07,09,01,29,18.40
2010,07,09,01,30,18.30
2010,07,09,01,31,18.30
2010,07,09,01,32,18.30
2010,07,09,01,33,18.30
2010,07,09,01,34,18.30
2010,07,09,01,35,18.30
2010,07,09,01,36,18.20
2010,07,09,01,37,18.20
2010,07,09,01,38,18.20
2010,07,09,01,39,18.20
2010,07,09,01,40,18.20
2010,07,09,01,41,18.20
2010,07,09,01,42,18.20
2010,07,09,01,43,18.10
2010,07,09,01,44,18.10
2010,07,09,01,45,18.10
2010,07,09,01,46,18.10
2010,07,09,01,47,18.10
2010,07,09,01,48,18.10
2010,07,09,01,49,18.10
2010,07,09,01,50,18.00
2010,07,09,01,51,18.00
2010,07,09,01,52,18.00
2010,07,09,01,53,18.00
2010,07,09,01,54,17.90
2010,07,09,01,55,17.90
2010,07,09,01,56,17.90
2010,07,09,01,57,17.90
2010,07,09,01,58,17.90
2010,07,09,01,59,17.90
2010,07,09,02,00,17.90
2010,07,09,02,01,17.90
2010,07,09,02,02,17.90
2010,07,09,02,03,17.80
2010,07,09,02,04,17.80
2010,07,09,02,05,17.80
2010,07,09,02,06,17.80
2010,07,09,02,07,17.80
2010,07,09,02,08,17.80
2010,07,09,02,09,17.80
2010,07,09,02,10,17.80
2010,07,09,02,11,17.80
2010,07,09,02,12,17.80
2010,07,09,02,13,17.90
2010,07,09,02,14,17.90
2010,07,09,02,15,18.00
2010,07,09,02,16,18.00
2010,07,09,02,17,18.10
2010,07,09,02,18,18.20
2010,07,09,02,19,18.20
2010,07,09,02,20,18.30
2010,07,09,02,21,18.30
2010,07,09,02,22,18.40
2010,07,09,02,23,18.40
2010,07,09,02,24,18.50
2010,07,09,02,25,18.50
2010,07,09,02,26,18.50
2010,07,09,02,27,18.60
2010,07,09,02,28,18.60
2010,07,09,02,29,18.60
2010,07,09,02,30,18.60
2010,07,09,02,31,18.60
2010,07,09,02,32,18.60
2010,07,09,02,33,18.60
2010,07,09,02,34,18.70
2010,07,09,02,35,18.60
2010,07,09,02,36,18.60
2010,07,09,02,37,18.60
2010,07,09,02,38,18.60
2010,07,09,02,39,18.60
2010,07,09,02,40,18.60
2010,07,09,02,41,18.60
2010,07,09,02,42,18.50
2010,07,09,02,43,18.50
2010,07,09,02,44,18.40
2010,07,09,02,45,18.40
2010,07,09,02,46,18.40
2010,07,09,02,47,18.30
2010,07,09,02,48,18.30
2010,07,09,02,49,18.30
2010,07,09,02,50,18.30
2010,07,09,02,51,18.20
2010,07,09,02,52,18.20
2010,07,09,02,53,18.20
2010,07,09,02,54,18.20
2010,07,09,02,55,18.10
2010,07,09,02,56,18.10
2010,07,09,02,57,18.10
2010,07,09,02,58,18.10
2010,07,09,02,59,18.00
2010,07,09,03,00,18.00
2010,07,09,03,01,17.90
2010,07,09,03,02,17.90
2010,07,09,03,03,17.90
2010,07,09,03,06,17.80
2010,07,09,03,07,17.80
2010,07,09,03,08,17.80
2010,07,09,03,09,17.80
2010,07,09,03,10,17.80
2010,07,09,03,11,17.70
2010,07,09,03,12,17.70
2010,07,09,03,13,17.70
2010,07,09,03,14,17.70
2010,07,09,03,15,17.60
2010,07,09,03,16,17.60
2010,07,09,03,17,17.60
2010,07,09,03,18,17.60
2010,07,09,03,19,17.50
2010,07,09,03,20,17.50
2010,07,09,03,21,17.50
2010,07,09,03,22,17.50
2010,07,09,03,23,17.40
2010,07,09,03,24,17.40
2010,07,09,03,25,17.40
2010,07,09,03,26,17.40
2010,07,09,03,27,17.40
2010,07,09,03,28,17.30
2010,07,09,03,29,17.30
2010,07,09,03,30,17.30
2010,07,09,03,31,17.30
2010,07,09,03,32,17.30
2010,07,09,03,33,17.20
2010,07,09,03,34,17.20
2010,07,09,03,35,17.20
2010,07,09,03,36,17.10
2010,07,09,03,37,17.10
2010,07,09,03,38,17.10
2010,07,09,03,39,17.00
2010,07,09,03,40,17.00
2010,07,09,03,41,17.00
2010,07,09,03,42,16.90
2010,07,09,03,43,16.90
2010,07,09,03,44,16.90
2010,07,09,03,45,16.90
2010,07,09,03,46,16.90
2010,07,09,03,47,16.90
2010,07,09,03,48,16.80
2010,07,09,03,49,16.80
2010,07,09,03,50,16.80
2010,07,09,03,51,16.80
2010,07,09,03,52,16.80
2010,07,09,03,53,16.80
2010,07,09,03,54,16.80
2010,07,09,03,55,16.70
2010,07,09,03,56,16.70
2010,07,09,03,57,16.70
2010,07,09,03,58,16.70
2010,07,09,03,59,16.70
2010,07,09,04,00,16.70
2010,07,09,04,01,16.70
2010,07,09,04,02,16.60
2010,07,09,04,03,16.60
2010,07,09,04,04,16.60
2010,07,09,04,05,16.60
2010,07,09,04,06,16.60
2010,07,09,04,07,16.60
2010,07,09,04,08,16.60
2010,07,09,04,09,16.60
2010,07,09,04,10,16.60
2010,07,09,04,11,16.60
2010,07,09,04,12,16.60
2010,07,09,04,13,16.60
2010,07,09,04,14,16.60
2010,07,09,04,15,16.60
2010,07,09,04,16,16.50
2010,07,09,04,17,16.50
2010,07,09,04,18,16.50
2010,07,09,04,19,16.50
2010,07,09,04,20,16.50
2010,07,09,04,21,16.50
2010,07,09,04,22,16.40
2010,07,09,04,23,16.40
2010,07,09,04,24,16.40
2010,07,09,04,25,16.40
2010,07,09,04,26,16.40
2010,07,09,04,27,16.40
2010,07,09,04,28,16.40
2010,07,09,04,29,16.40
2010,07,09,04,30,16.30
2010,07,09,04,31,16.30
2010,07,09,04,32,16.30
2010,07,09,04,33,16.30
2010,07,09,04,34,16.30
2010,07,09,04,35,16.30
2010,07,09,04,36,16.20
2010,07,09,04,37,16.20
2010,07,09,04,38,16.20
2010,07,09,04,39,16.20
2010,07,09,04,40,16.20
2010,07,09,04,41,16.20
2010,07,09,04,42,16.20
2010,07,09,04,43,16.10
2010,07,09,04,44,16.10
2010,07,09,04,45,16.10
2010,07,09,04,46,16.10
2010,07,09,04,47,16.10
2010,07,09,04,48,16.10
2010,07,09,04,49,16.10
2010,07,09,04,50,16.10
2010,07,09,04,51,16.10
2010,07,09,04,52,16.10
2010,07,09,04,53,16.10
2010,07,09,04,54,16.20
2010,07,09,04,55,16.20
2010,07,09,04,56,16.20
2010,07,09,04,57,16.30
2010,07,09,04,58,16.30
2010,07,09,04,59,16.30
2010,07,09,05,00,16.30
2010,07,09,05,01,16.30
2010,07,09,05,02,16.30
2010,07,09,05,03,16.40
2010,07,09,05,04,16.40
2010,07,09,05,05,16.40
2010,07,09,05,06,16.40
2010,07,09,05,07,16.40
2010,07,09,05,08,16.40
2010,07,09,05,09,16.40
2010,07,09,05,10,16.40
2010,07,09,05,11,16.40
2010,07,09,05,12,16.40
2010,07,09,05,13,16.40
2010,07,09,05,14,16.40
2010,07,09,05,15,16.40
2010,07,09,05,16,16.40
2010,07,09,05,17,16.30
2010,07,09,05,18,16.30
2010,07,09,05,19,16.30
2010,07,09,05,20,16.30
2010,07,09,05,21,16.30
2010,07,09,05,22,16.30
2010,07,09,05,23,16.20
2010,07,09,05,24,16.20
2010,07,09,05,25,16.20
2010,07,09,05,26,16.20
2010,07,09,05,27,16.20
2010,07,09,05,28,16.10
2010,07,09,05,29,16.10
2010,07,09,05,30,16.10
2010,07,09,05,31,16.10
2010,07,09,05,32,16.00
2010,07,09,05,33,16.00
2010,07,09,05,34,15.90
2010,07,09,05,35,15.90
2010,07,09,05,36,15.90
2010,07,09,05,37,15.80
2010,07,09,05,38,15.80
2010,07,09,05,39,15.80
2010,07,09,05,40,15.80
2010,07,09,05,41,15.70
2010,07,09,05,42,15.70
2010,07,09,05,43,15.70
2010,07,09,05,44,15.70
2010,07,09,05,45,15.70
2010,07,09,05,46,15.70
2010,07,09,05,47,15.60
2010,07,09,05,48,15.60
2010,07,09,05,49,15.60
2010,07,09,05,50,15.60
2010,07,09,05,51,15.60
2010,07,09,05,52,15.60
2010,07,09,05,53,15.60
2010,07,09,05,54,15.50
2010,07,09,05,55,15.50
2010,07,09,05,56,15.50
2010,07,09,05,57,15.50
2010,07,09,05,58,15.50
2010,07,09,05,59,15.50
2010,07,09,06,00,15.50
2010,07,09,06,01,15.50
2010,07,09,06,02,15.50
2010,07,09,06,03,15.50
2010,07,09,06,04,15.50
2010,07,09,06,05,15.40
2010,07,09,06,06,15.40
2010,07,09,06,07,15.40
2010,07,09,06,08,15.40
2010,07,09,06,09,15.40
2010,07,09,06,10,15.40
2010,07,09,06,11,15.40
2010,07,09,06,12,15.40
2010,07,09,06,13,15.40
2010,07,09,06,14,15.40
2010,07,09,06,15,15.40
2010,07,09,06,16,15.40
2010,07,09,06,17,15.40
2010,07,09,06,18,15.40
2010,07,09,06,19,15.40
2010,07,09,06,20,15.40
2010,07,09,06,21,15.40
2010,07,09,06,22,15.40
2010,07,09,06,23,15.40
2010,07,09,06,24,15.40
2010,07,09,06,25,15.40
2010,07,09,06,26,15.40
2010,07,09,06,27,15.40
2010,07,09,06,28,15.40
2010,07,09,06,29,15.50
2010,07,09,06,30,15.50
2010,07,09,06,31,15.50
2010,07,09,06,32,15.60
2010,07,09,06,33,15.60
2010,07,09,06,34,15.60
2010,07,09,06,35,15.60
2010,07,09,06,36,15.70
2010,07,09,06,37,15.70
2010,07,09,06,38,15.70
2010,07,09,06,39,15.80
2010,07,09,06,40,15.80
2010,07,09,06,41,15.80
2010,07,09,06,42,15.90
2010,07,09,06,43,15.90
2010,07,09,06,44,16.00
2010,07,09,06,45,16.00
2010,07,09,06,46,16.00
2010,07,09,06,47,16.10
2010,07,09,06,48,16.10
2010,07,09,06,49,16.20
2010,07,09,06,50,16.20
2010,07,09,06,51,16.30
2010,07,09,06,52,16.30
2010,07,09,06,53,16.30
2010,07,09,06,54,16.30
2010,07,09,06,55,16.40
2010,07,09,06,56,16.40
2010,07,09,06,57,16.40
2010,07,09,06,58,16.40
2010,07,09,06,59,16.50
2010,07,09,07,00,16.50
2010,07,09,07,01,16.60
2010,07,09,07,02,16.60
2010,07,09,07,03,16.60
2010,07,09,07,04,16.70
2010,07,09,07,05,16.70
2010,07,09,07,06,16.70
2010,07,09,07,07,16.80
2010,07,09,07,08,16.80
2010,07,09,07,09,16.80
2010,07,09,07,10,16.90
2010,07,09,07,11,16.90
2010,07,09,07,12,16.90
2010,07,09,07,13,16.90
2010,07,09,07,14,17.00
2010,07,09,07,15,17.00
2010,07,09,07,16,17.00
2010,07,09,07,17,17.10
2010,07,09,07,18,17.10
2010,07,09,07,19,17.10
2010,07,09,07,20,17.10
2010,07,09,07,21,17.10
2010,07,09,07,22,17.20
2010,07,09,07,23,17.20
2010,07,09,07,24,17.20
2010,07,09,07,25,17.20
2010,07,09,07,26,17.30
2010,07,09,07,27,17.30
2010,07,09,07,28,17.30
2010,07,09,07,29,17.40
2010,07,09,07,30,17.40
2010,07,09,07,31,17.40
2010,07,09,07,32,17.50
2010,07,09,07,33,17.50
2010,07,09,07,34,17.60
2010,07,09,07,35,17.60
2010,07,09,07,36,17.60
2010,07,09,07,37,17.60
2010,07,09,07,38,17.70
2010,07,09,07,39,17.70
2010,07,09,07,40,17.70
2010,07,09,07,41,17.80
2010,07,09,07,42,17.80
2010,07,09,07,43,17.80
2010,07,09,07,44,17.90
2010,07,09,07,45,17.90
2010,07,09,07,46,18.00
2010,07,09,07,47,18.10
2010,07,09,07,48,18.10
2010,07,09,07,49,18.20
2010,07,09,07,50,18.30
2010,07,09,07,51,18.30
2010,07,09,07,52,18.40
2010,07,09,07,53,18.50
2010,07,09,07,54,18.60
2010,07,09,07,55,18.70
2010,07,09,07,56,18.80
2010,07,09,07,57,18.90
2010,07,09,07,58,19.00
2010,07,09,07,59,19.10
2010,07,09,08,00,19.20
2010,07,09,08,01,19.30
2010,07,09,08,02,19.30
2010,07,09,08,03,19.40
2010,07,09,08,04,19.50
2010,07,09,08,05,19.50
2010,07,09,08,06,19.60
2010,07,09,08,07,19.60
2010,07,09,08,08,19.70
2010,07,09,08,09,19.70
2010,07,09,08,10,19.80
2010,07,09,08,11,19.90
2010,07,09,08,12,20.00
2010,07,09,08,13,20.00
2010,07,09,08,14,20.10
2010,07,09,08,15,20.20
2010,07,09,08,16,20.40
2010,07,09,08,17,20.50
2010,07,09,08,18,20.60
2010,07,09,08,19,20.70
2010,07,09,08,20,20.80
2010,07,09,08,21,20.90
2010,07,09,08,22,21.10
2010,07,09,08,23,21.20
2010,07,09,08,24,21.30
2010,07,09,08,25,21.50
2010,07,09,08,26,21.60
2010,07,09,08,27,21.70
2010,07,09,08,28,21.90
2010,07,09,08,29,22.00
2010,07,09,08,30,22.20
2010,07,09,08,31,22.30
2010,07,09,08,32,22.40
2010,07,09,08,33,22.50
2010,07,09,08,34,22.60
2010,07,09,08,35,22.80
2010,07,09,08,36,22.90
2010,07,09,08,37,23.00
2010,07,09,08,38,23.10
2010,07,09,08,39,23.20
2010,07,09,08,40,23.30
2010,07,09,08,41,23.40
2010,07,09,08,42,23.50
2010,07,09,08,43,23.60
2010,07,09,08,44,23.70
2010,07,09,08,45,23.80
2010,07,09,08,46,23.80
2010,07,09,08,47,23.90
2010,07,09,08,48,23.90
2010,07,09,08,49,24.00
2010,07,09,08,50,24.00
2010,07,09,08,51,24.10
2010,07,09,08,52,24.10
2010,07,09,08,53,24.10
2010,07,09,08,54,24.20
2010,07,09,08,55,24.20
2010,07,09,08,56,24.30
2010,07,09,08,57,24.40
2010,07,09,08,58,24.40
2010,07,09,08,59,24.50
2010,07,09,09,00,24.60
2010,07,09,09,01,24.60
2010,07,09,09,02,24.70
2010,07,09,09,03,24.80
2010,07,09,09,04,24.90
2010,07,09,09,05,24.90
2010,07,09,09,06,25.00
2010,07,09,09,07,25.00
2010,07,09,09,08,25.00
2010,07,09,09,09,25.10
2010,07,09,09,10,25.10
2010,07,09,09,11,25.10
2010,07,09,09,12,25.20
2010,07,09,09,13,25.30
2010,07,09,09,14,25.30
2010,07,09,09,15,25.50
2010,07,09,09,16,25.60
2010,07,09,09,17,25.70
2010,07,09,09,18,25.80
2010,07,09,09,19,25.90
2010,07,09,09,20,26.00
2010,07,09,09,21,26.10
2010,07,09,09,22,26.20
2010,07,09,09,23,26.30
2010,07,09,09,24,26.40
2010,07,09,09,25,26.40
2010,07,09,09,26,26.50
2010,07,09,09,27,26.60
2010,07,09,09,28,26.60
2010,07,09,09,29,26.70
2010,07,09,09,30,26.70
2010,07,09,09,31,26.80
2010,07,09,09,32,26.80
2010,07,09,09,33,26.90
2010,07,09,09,34,26.90
2010,07,09,09,35,27.00
2010,07,09,09,36,27.00
2010,07,09,09,37,27.10
2010,07,09,09,38,27.20
2010,07,09,09,39,27.30
2010,07,09,09,40,27.40
2010,07,09,09,41,27.50
2010,07,09,09,42,27.50
2010,07,09,09,43,27.50
2010,07,09,09,44,27.50
2010,07,09,09,45,27.50
2010,07,09,09,46,27.40
2010,07,09,09,47,27.30
2010,07,09,09,48,27.20
2010,07,09,09,49,27.10
2010,07,09,09,50,26.90
2010,07,09,09,51,26.80
2010,07,09,09,52,26.70
2010,07,09,09,53,26.60
2010,07,09,09,54,26.60
2010,07,09,09,55,26.60
2010,07,09,09,56,26.60
2010,07,09,09,57,26.60
2010,07,09,09,58,26.70
2010,07,09,09,59,26.70
2010,07,09,10,00,26.80
2010,07,09,10,01,26.80
2010,07,09,10,02,26.90
2010,07,09,10,03,26.90
2010,07,09,10,04,26.90
2010,07,09,10,05,26.90
2010,07,09,10,06,27.00
2010,07,09,10,07,27.00
2010,07,09,10,08,27.00
2010,07,09,10,09,27.10
2010,07,09,10,10,27.10
2010,07,09,10,11,27.10
2010,07,09,10,12,27.10
2010,07,09,10,13,27.10
2010,07,09,10,14,27.10
2010,07,09,10,15,27.10
2010,07,09,10,16,27.10
2010,07,09,10,17,27.10
2010,07,09,10,18,27.10
2010,07,09,10,19,27.20
2010,07,09,10,20,27.20
2010,07,09,10,21,27.30
2010,07,09,10,22,27.30
2010,07,09,10,23,27.30
2010,07,09,10,24,27.40
2010,07,09,10,25,27.40
2010,07,09,10,26,27.40
2010,07,09,10,27,27.50
2010,07,09,10,28,27.50
2010,07,09,10,29,27.50
2010,07,09,10,30,27.50
2010,07,09,10,31,27.50
2010,07,09,10,32,27.60
2010,07,09,10,33,27.60
2010,07,09,10,34,27.70
2010,07,09,10,35,27.70
2010,07,09,10,36,27.70
2010,07,09,10,37,27.70
2010,07,09,10,38,27.70
2010,07,09,10,39,27.80
2010,07,09,10,40,27.90
2010,07,09,10,41,27.90
2010,07,09,10,42,28.00
2010,07,09,10,43,28.10
2010,07,09,10,44,28.20
2010,07,09,10,45,28.20
2010,07,09,10,46,28.20
2010,07,09,10,47,28.20
2010,07,09,10,48,28.20
2010,07,09,10,49,28.20
2010,07,09,10,50,28.20
2010,07,09,10,51,28.20
2010,07,09,10,52,28.20
2010,07,09,10,53,28.20
2010,07,09,10,54,28.20
2010,07,09,10,55,28.30
2010,07,09,10,56,28.30
2010,07,09,10,57,28.30
2010,07,09,10,58,28.30
2010,07,09,10,59,28.40
2010,07,09,11,00,28.40
2010,07,09,11,01,28.50
2010,07,09,11,02,28.50
2010,07,09,11,03,28.60
2010,07,09,11,04,28.60
2010,07,09,11,05,28.60
2010,07,09,11,06,28.60
2010,07,09,11,07,28.60
2010,07,09,11,08,28.70
2010,07,09,11,09,28.70
2010,07,09,11,10,28.70
2010,07,09,11,11,28.80
2010,07,09,11,12,28.80
2010,07,09,11,13,28.80
2010,07,09,11,14,28.80
2010,07,09,11,15,28.80
2010,07,09,11,16,28.80
2010,07,09,11,17,28.90
2010,07,09,11,18,28.80
2010,07,09,11,19,28.90
2010,07,09,11,20,28.80
2010,07,09,11,21,28.80
2010,07,09,11,22,28.80
2010,07,09,11,23,28.80
2010,07,09,11,24,28.80
2010,07,09,11,25,28.80
2010,07,09,11,26,28.90
2010,07,09,11,27,29.00
2010,07,09,11,28,29.10
2010,07,09,11,29,29.20
2010,07,09,11,30,29.30
2010,07,09,11,31,29.40
2010,07,09,11,32,29.50
2010,07,09,11,33,29.50
2010,07,09,11,34,29.50
2010,07,09,11,35,29.50
2010,07,09,11,36,29.40
2010,07,09,11,37,29.40
2010,07,09,11,38,29.40
2010,07,09,11,39,29.40
2010,07,09,11,40,29.40
2010,07,09,11,41,29.40
2010,07,09,11,42,29.40
2010,07,09,11,43,29.40
2010,07,09,11,44,29.40
2010,07,09,11,45,29.40
2010,07,09,11,46,29.40
2010,07,09,11,47,29.30
2010,07,09,11,48,29.30
2010,07,09,11,49,29.40
2010,07,09,11,50,29.40
2010,07,09,11,51,29.40
2010,07,09,11,52,29.40
2010,07,09,11,53,29.40
2010,07,09,11,54,29.40
2010,07,09,11,55,29.40
2010,07,09,11,56,29.40
2010,07,09,11,57,29.50
2010,07,09,11,58,29.50
2010,07,09,11,59,29.50
2010,07,09,12,00,29.60
2010,07,09,12,01,29.60
2010,07,09,12,02,29.50
2010,07,09,12,03,29.50
2010,07,09,12,04,29.40
2010,07,09,12,05,29.40
2010,07,09,12,06,29.40
2010,07,09,12,07,29.30
2010,07,09,12,08,29.30
2010,07,09,12,09,29.30
2010,07,09,12,10,29.40
2010,07,09,12,11,29.40
2010,07,09,12,12,29.40
2010,07,09,12,13,29.50
2010,07,09,12,14,29.50
2010,07,09,12,15,29.50
2010,07,09,12,16,29.60
2010,07,09,12,17,29.60
2010,07,09,12,18,29.70
2010,07,09,12,19,29.80
2010,07,09,12,20,29.90
2010,07,09,12,21,30.10
2010,07,09,12,22,30.10
2010,07,09,12,23,30.20
2010,07,09,12,24,30.10
2010,07,09,12,25,30.10
2010,07,09,12,26,30.10
2010,07,09,12,27,30.00
2010,07,09,12,28,29.90
2010,07,09,12,29,29.80
2010,07,09,12,30,29.80
2010,07,09,12,31,29.80
2010,07,09,12,32,29.80
2010,07,09,12,33,29.80
2010,07,09,12,34,29.90
2010,07,09,12,35,30.00
2010,07,09,12,36,30.10
2010,07,09,12,37,30.00
2010,07,09,12,38,30.00
2010,07,09,12,39,30.00
2010,07,09,12,40,29.90
2010,07,09,12,41,29.80
2010,07,09,12,42,29.70
2010,07,09,12,43,29.70
2010,07,09,12,44,29.70
2010,07,09,12,45,29.70
2010,07,09,12,46,29.70
2010,07,09,12,47,29.70
2010,07,09,12,48,29.70
2010,07,09,12,49,29.70
2010,07,09,12,50,29.60
2010,07,09,12,51,29.60
2010,07,09,12,52,29.60
2010,07,09,12,53,29.60
2010,07,09,12,54,29.60
2010,07,09,12,55,29.70
2010,07,09,12,56,29.70
2010,07,09,12,57,29.70
2010,07,09,12,58,29.70
2010,07,09,12,59,29.70
2010,07,09,13,00,29.70
2010,07,09,13,01,29.70
2010,07,09,13,02,29.70
2010,07,09,13,03,29.70
2010,07,09,13,04,29.70
2010,07,09,13,05,29.80
2010,07,09,13,06,29.80
2010,07,09,13,07,29.80
2010,07,09,13,08,29.80
2010,07,09,13,09,29.80
2010,07,09,13,10,29.70
2010,07,09,13,11,29.70
2010,07,09,13,12,29.60
2010,07,09,13,13,29.60
2010,07,09,13,14,29.60
2010,07,09,13,15,29.60
2010,07,09,13,16,29.60
2010,07,09,13,17,29.60
2010,07,09,13,18,29.50
2010,07,09,13,19,29.40
2010,07,09,13,20,29.40
2010,07,09,13,21,29.30
2010,07,09,13,22,29.20
2010,07,09,13,23,29.20
2010,07,09,13,24,29.20
2010,07,09,13,25,29.20
2010,07,09,13,26,29.20
2010,07,09,13,27,29.20
2010,07,09,13,28,29.20
2010,07,09,13,29,29.20
2010,07,09,13,30,29.20
2010,07,09,13,31,29.20
2010,07,09,13,32,29.10
2010,07,09,13,33,29.10
2010,07,09,13,34,29.20
2010,07,09,13,35,29.20
2010,07,09,13,36,29.20
2010,07,09,13,37,29.20
2010,07,09,13,38,29.20
2010,07,09,13,39,29.20
2010,07,09,13,40,29.20
2010,07,09,13,41,29.20
2010,07,09,13,42,29.20
2010,07,09,13,43,29.30
2010,07,09,13,44,29.30
2010,07,09,13,45,29.30
2010,07,09,13,46,29.30
2010,07,09,13,47,29.30
2010,07,09,13,48,29.30
2010,07,09,13,49,29.20
2010,07,09,13,50,29.20
2010,07,09,13,51,29.30
2010,07,09,13,52,29.30
2010,07,09,13,53,29.30
2010,07,09,13,54,29.30
2010,07,09,13,55,29.20
2010,07,09,13,56,29.20
2010,07,09,13,57,29.20
2010,07,09,13,58,29.30
2010,07,09,13,59,29.30
2010,07,09,14,00,29.40
2010,07,09,14,01,29.50
2010,07,09,14,02,29.50
2010,07,09,14,03,29.60
2010,07,09,14,04,29.60
2010,07,09,14,05,29.70
2010,07,09,14,06,29.70
2010,07,09,14,07,29.70
2010,07,09,14,08,29.70
2010,07,09,14,09,29.80
2010,07,09,14,10,29.80
2010,07,09,14,11,29.80
2010,07,09,14,12,29.90
2010,07,09,14,13,30.00
2010,07,09,14,14,30.00
2010,07,09,14,15,30.00
2010,07,09,14,16,29.90
2010,07,09,14,17,29.90
2010,07,09,14,18,29.90
2010,07,09,14,19,29.90
2010,07,09,14,20,29.80
2010,07,09,14,21,29.80
2010,07,09,14,22,29.80
2010,07,09,14,23,29.80
2010,07,09,14,24,29.80
2010,07,09,14,25,29.80
2010,07,09,14,26,29.70
2010,07,09,14,27,29.70
2010,07,09,14,28,29.70
2010,07,09,14,29,29.80
2010,07,09,14,30,29.80
2010,07,09,14,31,29.80
2010,07,09,14,32,29.70
2010,07,09,14,33,29.70
2010,07,09,14,34,29.80
2010,07,09,14,35,29.80
2010,07,09,14,36,29.80
2010,07,09,14,37,29.80
2010,07,09,14,38,29.90
2010,07,09,14,39,29.90
2010,07,09,14,40,29.90
2010,07,09,14,41,30.00
2010,07,09,14,42,30.10
2010,07,09,14,43,30.10
2010,07,09,14,44,30.10
2010,07,09,14,45,30.10
2010,07,09,14,46,30.10
2010,07,09,14,47,30.20
2010,07,09,14,48,30.20
2010,07,09,14,49,30.20
2010,07,09,14,50,30.20
2010,07,09,14,51,30.20
2010,07,09,14,52,30.30
2010,07,09,14,53,30.30
2010,07,09,14,54,30.30
2010,07,09,14,55,30.30
2010,07,09,14,56,30.40
2010,07,09,14,57,30.30
2010,07,09,14,58,30.30
2010,07,09,14,59,30.20
2010,07,09,15,00,30.20
2010,07,09,15,01,30.20
2010,07,09,15,02,30.30
2010,07,09,15,03,30.40
2010,07,09,15,04,30.50
2010,07,09,15,05,30.60
2010,07,09,15,06,30.60
2010,07,09,15,07,30.60
2010,07,09,15,08,30.70
2010,07,09,15,09,30.70
2010,07,09,15,10,30.80
2010,07,09,15,11,30.80
2010,07,09,15,12,30.80
2010,07,09,15,13,30.80
2010,07,09,15,14,30.70
2010,07,09,15,15,30.60
2010,07,09,15,16,30.60
2010,07,09,15,17,30.60
2010,07,09,15,18,30.50
2010,07,09,15,19,30.60
2010,07,09,15,20,30.60
2010,07,09,15,21,30.60
2010,07,09,15,22,30.70
2010,07,09,15,23,30.70
2010,07,09,15,24,30.80
2010,07,09,15,25,30.80
2010,07,09,15,26,30.90
2010,07,09,15,27,30.90
2010,07,09,15,28,30.90
2010,07,09,15,29,30.80
2010,07,09,15,30,30.80
2010,07,09,15,31,30.80
2010,07,09,15,32,30.80
2010,07,09,15,33,30.80
2010,07,09,15,34,30.80
2010,07,09,15,35,30.80
2010,07,09,15,36,30.80
2010,07,09,15,37,30.70
2010,07,09,15,38,30.70
2010,07,09,15,39,30.50
2010,07,09,15,40,30.40
2010,07,09,15,41,30.30
2010,07,09,15,42,30.10
2010,07,09,15,43,30.10
2010,07,09,15,44,30.00
2010,07,09,15,45,30.00
2010,07,09,15,46,29.90
2010,07,09,15,47,29.90
2010,07,09,15,48,29.90
2010,07,09,15,49,29.80
2010,07,09,15,50,29.80
2010,07,09,15,51,29.70
2010,07,09,15,52,29.60
2010,07,09,15,53,29.60
2010,07,09,15,54,29.50
2010,07,09,15,55,29.50
2010,07,09,15,56,29.50
2010,07,09,15,57,29.50
2010,07,09,15,58,29.50
2010,07,09,15,59,29.50
2010,07,09,16,00,29.40
2010,07,09,16,01,29.40
2010,07,09,16,02,29.40
2010,07,09,16,03,29.40
2010,07,09,16,04,29.30
2010,07,09,16,05,29.30
2010,07,09,16,06,29.30
2010,07,09,16,07,29.20
2010,07,09,16,08,29.20
2010,07,09,16,09,29.20
2010,07,09,16,10,29.20
2010,07,09,16,11,29.10
2010,07,09,16,12,29.10
2010,07,09,16,13,29.10
2010,07,09,16,14,29.00
2010,07,09,16,15,28.90
2010,07,09,16,16,28.80
2010,07,09,16,17,28.70
2010,07,09,16,18,28.70
2010,07,09,16,19,28.70
2010,07,09,16,20,28.60
2010,07,09,16,21,28.60
2010,07,09,16,22,28.60
2010,07,09,16,23,28.60
2010,07,09,16,24,28.60
2010,07,09,16,25,28.60
2010,07,09,16,26,28.60
2010,07,09,16,27,28.60
2010,07,09,16,28,28.70
2010,07,09,16,29,28.70
2010,07,09,16,30,28.70
2010,07,09,16,31,28.70
2010,07,09,16,32,28.70
2010,07,09,16,33,28.70
2010,07,09,16,34,28.70
2010,07,09,16,35,28.70
2010,07,09,16,36,28.70
2010,07,09,16,37,28.70
2010,07,09,16,38,28.70
2010,07,09,16,39,28.70
2010,07,09,16,40,28.60
2010,07,09,16,41,28.50
2010,07,09,16,42,28.50
2010,07,09,16,43,28.40
2010,07,09,16,44,28.40
2010,07,09,16,45,28.40
2010,07,09,16,46,28.40
2010,07,09,16,47,28.40
2010,07,09,16,48,28.30
2010,07,09,16,49,28.30
2010,07,09,16,50,28.30
2010,07,09,16,51,28.30
2010,07,09,16,52,28.20
2010,07,09,16,53,28.20
2010,07,09,16,54,28.10
2010,07,09,16,55,28.10
2010,07,09,16,56,28.10
2010,07,09,16,57,28.10
2010,07,09,16,58,28.10
2010,07,09,16,59,28.10
2010,07,09,17,00,28.10
2010,07,09,17,01,28.20
2010,07,09,17,02,28.20
2010,07,09,17,03,28.20
2010,07,09,17,04,28.20
2010,07,09,17,05,28.20
2010,07,09,17,06,28.20
2010,07,09,17,07,28.20
2010,07,09,17,08,28.20
2010,07,09,17,09,28.20
2010,07,09,17,10,28.20
2010,07,09,17,11,28.30
2010,07,09,17,12,28.30
2010,07,09,17,13,28.30
2010,07,09,17,14,28.30
2010,07,09,17,15,28.30
2010,07,09,17,16,28.20
2010,07,09,17,17,28.20
2010,07,09,17,18,28.20
2010,07,09,17,19,28.20
2010,07,09,17,20,28.10
2010,07,09,17,21,28.10